Time,TemperatureF,DewpointF,PressureIn,WindDirection,WindDirectionDegrees,WindSpeedMPH,WindSpeedGustMPH,Humidity,HourlyPrecipIn,Conditions,Clouds,dailyrainin,SolarRadiationWatts/m^2,SoftwareType,DateUTC
2013-11-19 00:02:00,26.0,17.0,-100.00,WNW,293,4.0,11.0,67,0.00,,,0.00,0.000000,,2013-11-19 06:02:00,
2013-11-19 00:12:00,25.0,17.0,-100.00,West,278,3.0,9.0,70,0.00,,,0.00,0.000000,,2013-11-19 06:12:00,
2013-11-19 00:42:00,25.0,17.0,-100.00,West,278,3.0,9.0,70,0.00,,,0.00,0.000000,,2013-11-19 06:42:00,
2013-11-19 00:52:00,25.0,17.0,-100.00,West,278,3.0,9.0,70,0.00,,,0.00,0.000000,,2013-11-19 06:52:00,
2013-11-19 01:01:00,25.0,17.0,-100.00,West,278,3.0,9.0,70,0.00,,,0.00,0.000000,,2013-11-19 07:01:00,
2013-11-19 01:42:00,24.0,16.0,-100.00,NW,324,1.0,8.0,72,0.00,,,0.00,0.000000,,2013-11-19 07:42:00,
2013-11-19 01:52:00,24.0,16.0,-100.00,NW,324,1.0,8.0,72,0.00,,,0.00,0.000000,,2013-11-19 07:52:00,
2013-11-19 02:01:00,24.0,16.0,-100.00,NW,324,1.0,8.0,72,0.00,,,0.00,0.000000,,2013-11-19 08:01:00,
2013-11-19 02:11:00,24.0,16.0,-100.00,NW,324,1.0,8.0,72,0.00,,,0.00,0.000000,,2013-11-19 08:11:00,
2013-11-19 02:42:00,21.0,17.0,-100.00,SSW,210,0.0,3.0,84,0.00,,,0.00,0.000000,,2013-11-19 08:42:00,
2013-11-19 02:52:00,21.0,17.0,-100.00,SSW,210,0.0,3.0,84,0.00,,,0.00,0.000000,,2013-11-19 08:52:00,
2013-11-19 03:02:00,21.0,17.0,-100.00,SSW,210,0.0,3.0,84,0.00,,,0.00,0.000000,,2013-11-19 09:02:00,
2013-11-19 03:11:00,21.0,17.0,-100.00,SSW,210,0.0,3.0,84,0.00,,,0.00,0.000000,,2013-11-19 09:11:00,
2013-11-19 03:12:00,19.0,16.0,-100.00,SSW,192,0.0,2.0,89,0.00,,,0.00,0.000000,,2013-11-19 09:12:00,
2013-11-19 03:43:00,19.0,16.0,-100.00,SSW,192,0.0,2.0,89,0.00,,,0.00,0.000000,,2013-11-19 09:43:00,
2013-11-19 03:53:00,19.0,16.0,-100.00,SSW,192,0.0,2.0,89,0.00,,,0.00,0.000000,,2013-11-19 09:53:00,
2013-11-19 04:03:00,19.0,16.0,-100.00,SSW,192,0.0,2.0,89,0.00,,,0.00,0.000000,,2013-11-19 10:03:00,
2013-11-19 04:12:00,18.0,16.0,-100.00,NW,323,0.0,2.0,90,0.00,,,0.00,0.000000,,2013-11-19 10:12:00,
2013-11-19 04:43:00,18.0,16.0,-100.00,NW,323,0.0,2.0,90,0.00,,,0.00,0.000000,,2013-11-19 10:43:00,
2013-11-19 04:53:00,18.0,16.0,-100.00,NW,323,0.0,2.0,90,0.00,,,0.00,0.000000,,2013-11-19 10:53:00,
2013-11-19 05:02:00,18.0,16.0,-100.00,NW,323,0.0,2.0,90,0.00,,,0.00,0.000000,,2013-11-19 11:02:00,
2013-11-19 05:12:00,17.0,14.0,-100.00,SW,219,0.0,1.0,89,0.00,,,0.00,0.000000,,2013-11-19 11:12:00,
2013-11-19 05:42:00,17.0,14.0,-100.00,SW,219,0.0,1.0,89,0.00,,,0.00,0.000000,,2013-11-19 11:42:00,
2013-11-19 05:52:00,17.0,14.0,-100.00,SW,219,0.0,1.0,89,0.00,,,0.00,0.000000,,2013-11-19 11:52:00,
2013-11-19 06:02:00,17.0,14.0,-100.00,SW,219,0.0,1.0,89,0.00,,,0.00,0.000000,,2013-11-19 12:02:00,
2013-11-19 06:42:00,17.0,14.0,-100.00,SW,235,0.0,1.0,88,0.00,,,0.00,0.000000,,2013-11-19 12:42:00,
2013-11-19 06:52:00,17.0,14.0,-100.00,SW,235,0.0,1.0,88,0.00,,,0.00,0.000000,,2013-11-19 12:52:00,
2013-11-19 07:01:00,17.0,14.0,-100.00,SW,235,0.0,1.0,88,0.00,,,0.00,0.000000,,2013-11-19 13:01:00,
2013-11-19 07:11:00,17.0,14.0,-100.00,SW,235,0.0,1.0,88,0.00,,,0.00,0.000000,,2013-11-19 13:11:00,
2013-11-19 07:42:00,16.0,13.0,-100.00,South,189,0.0,0.0,87,0.00,,,0.00,2.000000,,2013-11-19 13:42:00,
2013-11-19 07:52:00,16.0,13.0,-100.00,South,189,0.0,0.0,87,0.00,,,0.00,2.000000,,2013-11-19 13:52:00,
2013-11-19 08:02:00,16.0,13.0,-100.00,South,189,0.0,0.0,87,0.00,,,0.00,2.000000,,2013-11-19 14:02:00,
2013-11-19 08:11:00,16.0,13.0,-100.00,South,189,0.0,0.0,87,0.00,,,0.00,2.000000,,2013-11-19 14:11:00,
2013-11-19 08:42:00,19.0,16.0,-100.00,SSE,167,0.0,1.0,89,0.00,,,0.00,19.000000,,2013-11-19 14:42:00,
2013-11-19 08:52:00,19.0,16.0,-100.00,SSE,167,0.0,1.0,89,0.00,,,0.00,19.000000,,2013-11-19 14:52:00,
2013-11-19 09:01:00,19.0,16.0,-100.00,SSE,167,0.0,1.0,89,0.00,,,0.00,19.000000,,2013-11-19 15:01:00,
2013-11-19 09:11:00,19.0,16.0,-100.00,SSE,167,0.0,1.0,89,0.00,,,0.00,19.000000,,2013-11-19 15:11:00,
2013-11-19 09:12:00,30.0,21.0,-100.00,East,96,2.0,4.0,69,0.00,,,0.00,214.000000,,2013-11-19 15:12:00,
2013-11-19 09:43:00,30.0,21.0,-100.00,East,96,2.0,4.0,69,0.00,,,0.00,214.000000,,2013-11-19 15:43:00,
2013-11-19 09:54:00,30.0,21.0,-100.00,East,96,2.0,4.0,69,0.00,,,0.00,214.000000,,2013-11-19 15:54:00,
2013-11-19 10:04:00,30.0,21.0,-100.00,East,96,2.0,4.0,69,0.00,,,0.00,214.000000,,2013-11-19 16:04:00,
2013-11-19 10:12:00,32.0,18.0,-100.00,SE,129,4.0,9.0,56,0.00,,,0.00,360.000000,,2013-11-19 16:12:00,
2013-11-19 10:43:00,32.0,18.0,-100.00,SE,129,4.0,9.0,56,0.00,,,0.00,360.000000,,2013-11-19 16:43:00,
2013-11-19 10:52:00,32.0,18.0,-100.00,SE,129,4.0,9.0,56,0.00,,,0.00,360.000000,,2013-11-19 16:52:00,
2013-11-19 11:02:00,32.0,18.0,-100.00,SE,129,4.0,9.0,56,0.00,,,0.00,360.000000,,2013-11-19 17:02:00,
2013-11-19 11:12:00,34.0,19.0,-100.00,SE,129,4.0,9.0,54,0.00,,,0.00,446.000000,,2013-11-19 17:12:00,
2013-11-19 11:43:00,34.0,19.0,-100.00,SE,129,4.0,9.0,54,0.00,,,0.00,446.000000,,2013-11-19 17:43:00,
2013-11-19 11:52:00,34.0,19.0,-100.00,SE,129,4.0,9.0,54,0.00,,,0.00,446.000000,,2013-11-19 17:52:00,
2013-11-19 12:02:00,34.0,19.0,-100.00,SE,129,4.0,9.0,54,0.00,,,0.00,446.000000,,2013-11-19 18:02:00,
2013-11-19 12:42:00,36.0,21.0,-100.00,ESE,105,3.0,9.0,53,0.00,,,-99.99,476.000000,,2013-11-19 18:42:00,
2013-11-19 12:52:00,36.0,21.0,-100.00,ESE,105,3.0,9.0,53,0.00,,,-99.99,476.000000,,2013-11-19 18:52:00,
2013-11-19 13:01:00,36.0,21.0,-100.00,ESE,105,3.0,9.0,53,0.00,,,-99.99,476.000000,,2013-11-19 19:01:00,
2013-11-19 13:11:00,36.0,21.0,-100.00,ESE,105,3.0,9.0,53,0.00,,,-99.99,476.000000,,2013-11-19 19:11:00,
2013-11-19 13:12:00,39.0,20.0,-100.00,SSE,155,4.0,11.0,47,0.00,,,0.00,446.000000,,2013-11-19 19:12:00,
2013-11-19 13:42:00,39.0,20.0,-100.00,SSE,155,4.0,11.0,47,0.00,,,0.00,446.000000,,2013-11-19 19:42:00,
2013-11-19 13:52:00,39.0,20.0,-100.00,SSE,155,4.0,11.0,47,0.00,,,0.00,446.000000,,2013-11-19 19:52:00,
2013-11-19 14:02:00,39.0,20.0,-100.00,SSE,155,4.0,11.0,47,0.00,,,0.00,446.000000,,2013-11-19 20:02:00,
2013-11-19 14:42:00,37.0,19.0,-100.00,SE,128,4.0,10.0,48,0.00,,,0.00,265.000000,,2013-11-19 20:42:00,
2013-11-19 14:52:00,37.0,19.0,-100.00,SE,128,4.0,10.0,48,0.00,,,0.00,265.000000,,2013-11-19 20:52:00,
2013-11-19 15:02:00,37.0,19.0,-100.00,SE,128,4.0,10.0,48,0.00,,,0.00,265.000000,,2013-11-19 21:02:00,
2013-11-19 15:11:00,37.0,19.0,-100.00,SE,128,4.0,10.0,48,0.00,,,0.00,265.000000,,2013-11-19 21:11:00,
2013-11-19 15:12:00,37.0,21.0,-100.00,ESE,118,5.0,11.0,52,0.00,,,0.00,159.000000,,2013-11-19 21:12:00,
2013-11-19 15:43:00,37.0,21.0,-100.00,ESE,118,5.0,11.0,52,0.00,,,0.00,159.000000,,2013-11-19 21:43:00,
2013-11-19 15:54:00,37.0,21.0,-100.00,ESE,118,5.0,11.0,52,0.00,,,0.00,159.000000,,2013-11-19 21:54:00,
2013-11-19 16:03:00,37.0,21.0,-100.00,ESE,118,5.0,11.0,52,0.00,,,0.00,159.000000,,2013-11-19 22:03:00,
2013-11-19 16:12:00,36.0,22.0,-100.00,SE,128,2.0,10.0,56,0.00,,,0.00,81.000000,,2013-11-19 22:12:00,
2013-11-19 16:43:00,36.0,22.0,-100.00,SE,128,2.0,10.0,56,0.00,,,0.00,81.000000,,2013-11-19 22:43:00,
2013-11-19 16:53:00,36.0,22.0,-100.00,SE,128,2.0,10.0,56,0.00,,,0.00,81.000000,,2013-11-19 22:53:00,
2013-11-19 17:02:00,36.0,22.0,-100.00,SE,128,2.0,10.0,56,0.00,,,0.00,81.000000,,2013-11-19 23:02:00,
2013-11-19 17:43:00,34.0,22.0,-100.00,SE,134,2.0,8.0,60,0.00,,,0.00,9.000000,,2013-11-19 23:43:00,
2013-11-19 17:52:00,34.0,22.0,-100.00,SE,134,2.0,8.0,60,0.00,,,0.00,9.000000,,2013-11-19 23:52:00,
2013-11-19 18:02:00,34.0,22.0,-100.00,SE,134,2.0,8.0,60,0.00,,,0.00,9.000000,,2013-11-20 00:02:00,
2013-11-19 18:11:00,34.0,22.0,-100.00,SE,134,2.0,8.0,60,0.00,,,0.00,9.000000,,2013-11-20 00:11:00,
2013-11-19 18:42:00,32.0,22.0,-100.00,SSE,149,1.0,5.0,66,0.00,,,0.00,0.000000,,2013-11-20 00:42:00,
2013-11-19 18:52:00,32.0,22.0,-100.00,SSE,149,1.0,5.0,66,0.00,,,0.00,0.000000,,2013-11-20 00:52:00,
2013-11-19 19:01:00,32.0,22.0,-100.00,SSE,149,1.0,5.0,66,0.00,,,0.00,0.000000,,2013-11-20 01:01:00,
2013-11-19 19:11:00,32.0,22.0,-100.00,SSE,149,1.0,5.0,66,0.00,,,0.00,0.000000,,2013-11-20 01:11:00,
2013-11-19 19:42:00,31.0,23.0,-100.00,SE,138,2.0,6.0,71,0.00,,,0.00,0.000000,,2013-11-20 01:42:00,
2013-11-19 19:52:00,31.0,23.0,-100.00,SE,138,2.0,6.0,71,0.00,,,0.00,0.000000,,2013-11-20 01:52:00,
2013-11-19 20:01:00,31.0,23.0,-100.00,SE,138,2.0,6.0,71,0.00,,,0.00,0.000000,,2013-11-20 02:01:00,
2013-11-19 20:11:00,31.0,23.0,-100.00,SE,138,2.0,6.0,71,0.00,,,0.00,0.000000,,2013-11-20 02:11:00,
2013-11-19 20:42:00,32.0,24.0,-100.00,SE,132,2.0,6.0,71,0.00,,,0.00,0.000000,,2013-11-20 02:42:00,
2013-11-19 20:52:00,32.0,24.0,-100.00,SE,132,2.0,6.0,71,0.00,,,0.00,0.000000,,2013-11-20 02:52:00,
2013-11-19 21:02:00,32.0,24.0,-100.00,SE,132,2.0,6.0,71,0.00,,,0.00,0.000000,,2013-11-20 03:02:00,
2013-11-19 21:11:00,32.0,24.0,-100.00,SE,132,2.0,6.0,71,0.00,,,0.00,0.000000,,2013-11-20 03:11:00,
2013-11-19 21:12:00,31.0,25.0,-100.00,SSE,147,2.0,6.0,78,0.00,,,0.00,0.000000,,2013-11-20 03:12:00,
2013-11-19 21:44:00,31.0,25.0,-100.00,SSE,147,2.0,6.0,78,0.00,,,0.00,0.000000,,2013-11-20 03:44:00,
2013-11-19 21:54:00,31.0,25.0,-100.00,SSE,147,2.0,6.0,78,0.00,,,0.00,0.000000,,2013-11-20 03:54:00,
2013-11-19 22:03:00,31.0,25.0,-100.00,SSE,147,2.0,6.0,78,0.00,,,0.00,0.000000,,2013-11-20 04:03:00,
2013-11-19 22:12:00,31.0,26.0,-100.00,SSE,155,2.0,7.0,80,0.00,,,0.00,0.000000,,2013-11-20 04:12:00,
2013-11-19 22:43:00,31.0,26.0,-100.00,SSE,155,2.0,7.0,80,0.00,,,0.00,0.000000,,2013-11-20 04:43:00,
2013-11-19 22:52:00,31.0,26.0,-100.00,SSE,155,2.0,7.0,80,0.00,,,0.00,0.000000,,2013-11-20 04:52:00,
2013-11-19 23:02:00,31.0,26.0,-100.00,SSE,155,2.0,7.0,80,0.00,,,0.00,0.000000,,2013-11-20 05:02:00,
2013-11-19 23:12:00,31.0,26.0,-100.00,SSE,167,2.0,7.0,82,0.00,,,0.00,0.000000,,2013-11-20 05:12:00,
2013-11-19 23:43:00,31.0,26.0,-100.00,SSE,167,2.0,7.0,82,0.00,,,0.00,0.000000,,2013-11-20 05:43:00,
2013-11-19 23:53:00,31.0,26.0,-100.00,SSE,167,2.0,7.0,82,0.00,,,0.00,0.000000,,2013-11-20 05:53:00,